Weather History for Fort Eustis, VA

Change the Weather History Date:

Saturday, November 26, 2011

  Actual Average Record
Temperature  
Mean Temperature 56 °F -  
Max Temperature 67 °F 56 °F 73 °F (1996)
Min Temperature 46 °F 39 °F 30 °F (2008)
Degree Days  
Heating Degree Days 8    
Growing Degree Days 6 (Base 50)    
Moisture  
Dew Point 41 °F    
Average Humidity 58    
Maximum Humidity 74    
Minimum Humidity 38    
Precipitation  
Precipitation 0.00 in - - ()
Sea Level Pressure  
Sea Level Pressure 30.26 in    
Wind  
Wind Speed 5 mph (SW)    
Max Wind Speed 8 mph    
Max Gust Speed -    
Visibility 10 miles    
Events      
Averages and records for this station are not official NWS values.
T = Trace of Precipitation, MM = Missing Value Source: NWS Daily Summary

Daily Weather History Graph

Daily Weather History Graph

Search for Another Location

Airport:

Trip Planner

Search our weather history database for the weather conditions in past years. The results will help you decide how hot, cold, wet, or windy it might be!

Date:

Astronomy

Nov. 26, 2011 Rise Set
Actual Time 6:56 AM EST 4:50 PM EST
Civil Twilight 6:27 AM EST 5:19 PM EST
Nautical Twilight 5:55 AM EST 5:51 PM EST
Astronomical Twilight 5:24 AM EST 6:22 PM EST
Moon 8:23 AM EST (11/26) 6:20 PM EST (11/26)
Length of Visible Light 10h 51m
Length of Day
9h 54m
Waxing Crescent, 3% of the Moon is Illuminated
Nov 26
Waxing Crescent
Dec 2
First Quarter
Dec 10
Full
Dec 17
Last Quarter
Dec 24
New

Hourly Weather History & Observations

Time (EST) Temp. Windchill Dew Point Humidity Pressure Visibility Wind Dir Wind Speed Gust Speed Precip Events Conditions
12:55 AM 51.8 °F - 36.5 °F 56% 30.26 in 10.0 mi SSW 4.6 mph - N/A   Clear
4:55 AM 48.0 °F - 35.6 °F 62% 30.27 in 10.0 mi SW 4.6 mph - N/A   Clear
5:55 AM 46.4 °F 43.5 °F 35.6 °F 66% 30.27 in 10.0 mi SW 5.8 mph - N/A   Clear
6:55 AM 47.1 °F - 34.7 °F 62% 30.29 in 10.0 mi WSW 6.9 mph - N/A   Clear
7:55 AM 49.5 °F - 34.5 °F 56% 30.30 in 10.0 mi WSW 3.5 mph - N/A   Clear
8:55 AM 54.5 °F - 36.3 °F 50% 30.31 in 10.0 mi West 5.8 mph - N/A   Clear
9:55 AM 58.6 °F - 37.2 °F 45% 30.31 in 10.0 mi West 8.1 mph - N/A   Clear
10:55 AM 63.3 °F - 40.5 °F 43% 30.30 in 10.0 mi West 8.1 mph - N/A   Clear
11:55 AM 64.9 °F - 40.1 °F 40% 30.27 in 10.0 mi West 6.9 mph - N/A   Clear
12:55 PM 66.9 °F - 41.7 °F 40% 30.24 in 10.0 mi Variable 6.9 mph - N/A   Clear
1:55 PM 67.6 °F - 41.4 °F 38% 30.22 in 10.0 mi SW 5.8 mph - N/A   Clear
2:55 PM 67.5 °F - 43.7 °F 42% 30.22 in 10.0 mi South 5.8 mph - N/A   Clear
3:55 PM 65.7 °F - 43.7 °F 45% 30.23 in 10.0 mi SSW 4.6 mph - N/A   Clear
4:55 PM 59.0 °F - 46.6 °F 63% 30.25 in 10.0 mi Calm Calm - N/A   Clear
5:55 PM 54.7 °F - 45.0 °F 70% 30.25 in 10.0 mi Calm Calm - N/A   Clear
6:55 PM 53.1 °F - 45.1 °F 74% 30.26 in 10.0 mi South 3.5 mph - N/A   Clear
7:55 PM 54.9 °F - 46.0 °F 72% 30.25 in 10.0 mi South 6.9 mph - N/A   Clear
8:55 PM 56.3 °F - 46.0 °F 68% 30.24 in 10.0 mi South 4.6 mph - N/A   Clear
9:55 PM 56.3 °F - 47.5 °F 72% 30.24 in 10.0 mi SSW 5.8 mph - N/A   Clear
10:55 PM 55.8 °F - 46.8 °F 72% 30.24 in 10.0 mi South 3.5 mph - N/A   Clear
11:55 PM 54.5 °F - 46.4 °F 74% 30.24 in 10.0 mi South 4.6 mph - N/A   Clear